Flag for France Weather past 2 weeks in Reims, France

Now
68 °F

More clouds than sun.


Feels Like: 68 °F
Forecast: 49 / 69 °F
Wind: 14 mph from North

Location: Chalons-Vatry

Current Time: May 23, 2015 at 3:43:53 PM

Latest Report: May 23, 2015 at 3:00 PM


Visibility: N/A

Pressure: 30.12 "Hg

Humidity: 49%

Dew point: 48 °F

Location of ReimsLocation

Historic Weather in Reims — Graph

°F

Reims temperature yesterday

Maximum temperature yesterday: 68 °F (at 6:00 PM)
Minimum temperature yesterday: 45 °F (at 3:30 AM)
Average temperature yesterday: 56 °F

Past Weeks' High & Low Weather Summary

 TemperatureHumidityPressure
High77 °F (May 11, 4:00 PM)100% (May 9, 4:00 AM)30.36 "Hg (May 9, 4:00 AM)
Low36 °F (May 21, 6:00 AM)37% (May 21, 6:30 PM)29.77 "Hg (May 18, 6:00 PM)
Average56 °F75%30.12 "Hg
* Reported May 8 2:00 PM — May 23 2:30 PM, Reims, Weather by CustomWeather, © 2015

Note: Actual official high and low records may vary slightly from our data, if they occured in-between our weather recording intervals... More about our weather records

Advertising

Reims weather history for previous 24 hours

 ConditionsComfort  
Time TempWeatherWind HumidityBarometerVisibility
2:30 PM
Sat, May 23
68 °FPartly sunny.13 mph46%30.12 "HgN/A
2:00 PM68 °FPartly sunny.15 mph49%30.12 "HgN/A
1:30 PM68 °FPartly sunny.14 mph46%30.12 "HgN/A
1:00 PM66 °FPartly sunny.13 mph49%30.15 "HgN/A
12:30 PM66 °FScattered clouds.10 mph49%30.15 "HgN/A
12:00 PM66 °FSunny.10 mph52%30.15 "Hg10 mi
11:30 AM66 °FPassing clouds.9 mph56%30.15 "HgN/A
11:00 AM63 °FSunny.10 mph59%30.15 "Hg10 mi
10:30 AM63 °FSunny.13 mph64%30.15 "Hg10 mi
10:00 AM61 °FSunny.9 mph68%30.18 "Hg10 mi
9:30 AM57 °FSunny.9 mph77%30.18 "Hg10 mi
9:00 AM55 °FSunny.12 mph82%30.18 "Hg10 mi
8:30 AM54 °FSunny.12 mph82%30.18 "Hg10 mi
8:00 AM52 °FSunny.8 mph88%30.15 "Hg10 mi
7:30 AM50 °FClear.7 mph88%30.15 "Hg10 mi
7:00 AM50 °FClear.7 mph88%30.15 "Hg10 mi
6:30 AM48 °FClear.8 mph87%30.15 "Hg10 mi
6:00 AM48 °FClear.6 mph87%30.15 "Hg10 mi
5:30 AM48 °FClear.7 mph87%30.15 "Hg10 mi
5:00 AM48 °FClear.9 mph87%30.15 "Hg10 mi
4:30 AM50 °FClear.10 mph88%30.15 "Hg10 mi
4:00 AM48 °FClear.9 mph87%30.18 "Hg10 mi
3:30 AM46 °FClear.7 mph87%30.18 "Hg10 mi
3:00 AM48 °FClear.8 mph82%30.18 "Hg10 mi
2:30 AM48 °FClear.7 mph82%30.18 "Hg10 mi
2:00 AM50 °FClear.7 mph76%30.18 "Hg10 mi
1:30 AM52 °FClear.5 mph72%30.21 "Hg10 mi
1:00 AM52 °FClear.5 mph77%30.21 "Hg10 mi
12:30 AM54 °FClear.6 mph72%30.21 "Hg10 mi
12:00 AM52 °FClear.3 mph77%30.21 "Hg10 mi
11:30 PM
Fri, May 22
52 °FClear.3 mph77%30.21 "Hg10 mi
11:00 PM54 °FSunny.5 mph77%30.21 "Hg10 mi
10:30 PM54 °FSunny.3 mph77%30.21 "Hg10 mi
10:00 PM55 °FSunny.7 mph72%30.21 "Hg10 mi
9:30 PM57 °FSunny.9 mph67%30.21 "Hg10 mi
9:00 PM57 °FSunny.7 mph67%30.21 "Hg10 mi
8:30 PM61 °FSunny.6 mph63%30.21 "Hg10 mi
8:00 PM63 °FSunny.6 mph56%30.21 "Hg10 mi
7:30 PM64 °FSunny.3 mph49%30.21 "Hg10 mi
7:00 PM64 °FSunny.3 mph46%30.21 "Hg10 mi
6:30 PM66 °FPassing clouds.6 mph43%30.21 "HgN/A
6:00 PM68 °FPassing clouds.3 mph40%30.21 "HgN/A
5:30 PM66 °FPassing clouds.6 mph40%30.24 "HgN/A
5:00 PM66 °FPassing clouds.7 mph43%30.24 "HgN/A
4:30 PM64 °FPassing clouds.5 mph43%30.24 "HgN/A
4:00 PM64 °FPassing clouds.5 mph46%30.24 "HgN/A
3:30 PM64 °FPassing clouds.6 mph43%30.27 "HgN/A
3:00 PM66 °FBroken clouds.3 mph43%30.27 "HgN/A
Weather by CustomWeather, © 2015

See weather overviewHow to use our weather pages